User: anonymous   Login
Location: Camoruquito
(9.9001°N, 67.3564°W)
Time: 00:29:00
(UTC+00:00)
Language:

Cosmos 468 - Orbit

View from above orbital plane
View from above orbital plane
View from above satellite
View from above satellite

Ground track
Ground track

The orbit data is extracted from the following two-line orbital elements,

1  5705U 71114A   24169.65072224  .00000270  00000-0  10136-3 0  9994
2  5705  74.0168 143.6010 0014980   2.1115 358.0098 14.36214454746770
Epoch (UTC): 17 June 2024 15:37:02
Eccentricity: 0.0014980
inclination: 74.0168°
perigee height: 760 km
apogee height: 782 km
right ascension of ascending node: 143.6010°
argument of perigee: 2.1115°
revolutions per day: 14.36214454
mean anomaly at epoch: 358.0098°
orbit number at epoch: 74677

The dashed part of the orbit path shows where the satellite is in the earth's shadow,  

DLR